www.pogodaiklimat.ru

Погода и климат >> Архив погоды >> Индия >> Лакшадвип >> Остров Амини


ПОГОДА на Острове Амини

  • Прогноз погоды на Острове Амини
  • Монитор погоды на Острове Амини

АРХИВ ПОГОДЫ на Острове Амини

Время (UTC), дата Ветер
(напр.,м/с)
 
Видим.   Явления Облачность Т
(С)
Тd
(С)
f
(%)
Тe
(С)
Тes
(С)
Комфортность P
(гПа)
Po
(гПа)
Тmin
(С)
Tmax
(С)
R
(мм)
R24
(мм)
S
(см)
06 17.01 СВ 3 10 км 5/5 600 м
[Sc]
+31.6 +23.2 61 +42 +49 опасность
перегрева
1012.9 1013.0
09 17.01 С 1 10 км 3/3 600 м
[Sc]
+32.6 +22.7 56 +42 +53 опасность
перегрева
1010.1 1010.0
12 17.01 штиль 0 10 км 5/5 600 м
[Sc]
+31.2 +23.7 64 +42 +43 опасность
перегрева
1008.6 1009.0 +33.4
15 17.01 штиль 0 4000 м 4/4 600 м
[Sc]
+27.0 +23.8 83 +37 +37 очень
душно
1010.3 1010.0
18 17.01 штиль 0 4000 м 5/5 600 м
[Sc]
+25.0 +22.6 87 +33 +33 очень
душно
1011.6 1012.0
21 17.01 штиль 0 4000 м 4/3 600 м
[Sc Ci fib]
+24.4 +22.9 91 +32 +32 очень
душно
1010.5 1011.0
00 18.01 штиль 0 4000 м 5/5 600 м
[Sc]
+24.4 +22.9 91 +32 +32 очень
душно
1010.8 1011.0
03 18.01 штиль 0 10 км 4/3 600 м
[Sc Ci fib]
+25.6 +22.6 84 +34 +37 очень
душно
1012.5 1013.0 +22.0 +33.4
06 18.01 штиль 0 10 км 5/5 600 м
[Sc]
+31.8 +23.1 60
09 18.01 штиль 0 10 км 1/1 600 м
[Sc]
+31.0 +23.2 63 +41 +57 опасность
перегрева
1010.2 1010.0
12 18.01 штиль 0 10 км 5/5 600 м
[Sc]
+29.8 +23.1 67 +40 +40 очень
душно
1009.5 1010.0 +32.6
15 18.01 штиль 0 4000 м 3/3 600 м
[Sc]
+26.0 +23.1 84 +35 +35 очень
душно
1011.2 1011.0
18 18.01 штиль 0 4000 м 5/5 600 м
[Sc]
+24.6 +22.8 90 +33 +33 очень
душно
1011.9 1012.0
21 18.01 штиль 0 4000 м 1/1 600 м
[Sc]
+24.6 +22.8 90 +33 +33 очень
душно
1011.6 1012.0
00 19.01 штиль 0 4000 м 5/5 600 м
[Sc]
+24.2 +22.7 91 +32 +32 очень
душно
1011.3 1011.0
03 19.01 штиль 0 4000 м 8/3 600 м
[Sc Ci fib]
+24.4 +23.2 93 +33 +35 очень
душно
1013.6 1014.0 +21.8 +32.6
06 19.01 штиль 0 4000 м 8/5 600 м
[Sc Ci fib]
+29.2 +23.1 70 +39 +48 очень
душно
1014.6 1015.0
09 19.01 штиль 0 10 км 8/5 600 м
[Sc Ci fib]
+30.8 +23.9 67 +42 +50 опасность
перегрева
1011.6 1012.0
12 19.01 штиль 0 10 км 8/5 600 м
[Sc Ci fib]
+30.2 +24.2 70 +42 +43 опасность
перегрева
1010.7 1011.0 +31.9
15 19.01 штиль 0 4000 м 8/3 600 м
[Sc Ci fib]
+25.8 +23.2 86 +35 +35 очень
душно
1012.3 1012.0
18 19.01 штиль 0 4000 м 6/5 600 м
[Sc Ci fib]
+24.4 +22.6 90 +32 +32 очень
душно
1013.7 1014.0
21 19.01 штиль 0 4000 м 6/3 600 м
[Sc Ci fib]
+23.4 +22.5 95 +32 +32 очень
душно
1012.7 1013.0
00 20.01 штиль 0 4000 м 6/5 600 м
[Sc Ci fib]
+23.2 +22.3 95 +32 +32 очень
душно
1012.8 1013.0
03 20.01 штиль 0 4000 м 4/3 600 м
[Sc Ci fib]
+24.6 +22.8 90 +33 +35 очень
душно
1014.2 1014.0 +21.3 +31.9
06 20.01 штиль 0 10 км 4/3 600 м
[Sc Ci fib]
+30.4 +22.5 63 +40 +54 опасность
солнечного
удара
1013.9 1014.0
09 20.01 СВ 2 10 км 4/4 600 м
[Sc]
+31.6 +22.9 60 +42 +49 опасность
перегрева
1011.4 1011.0
12 20.01 штиль 0 10 км 6/4 600 м
[Sc Ci fib]
+29.2 +23.1 70 +39 +40 очень
душно
1010.9 1011.0 +32.2
15 20.01 штиль 0 4000 м 5/3 600 м
[Sc Ci fib]
+26.0 +23.1 84 +35 +35 очень
душно
1012.0 1012.0
18 20.01 штиль 0 4000 м 6/5 600 м
[Sc Ci fib]
+24.8 +22.4 87 +32 +32 очень
душно
1013.7 1014.0
21 20.01 штиль 0 4000 м 5/4 600 м
[Sc Ci fib]
+24.0 +22.5 91 +31 +31 очень
душно
1012.0 1012.0
00 21.01 штиль 0 4000 м 4/3 600 м
[Sc Ci fib]
+23.6 +22.1 91 +30 +30 очень
душно
1011.7 1012.0
03 21.01 штиль 0 10 км 4/4 600 м
[Sc]
+24.0 +22.2 90 +31 +34 очень
душно
1014.0 1014.0 +21.2 +32.2
06 21.01 штиль 0 10 км 5/5 600 м
[Sc]
+29.2 +20.8 61 +36 +47 очень
душно
1015.2 1015.0
09 21.01 штиль 0 10 км 4/4 600 м
[Sc]
+31.0 +20.5 54 +38 +48 очень
душно
1012.1 1012.0
12 21.01 штиль 0 10 км 4/4 600 м
[Sc]
+30.4 +21.8 60 +39 +40 очень
душно
1011.1 1011.0 +32.3
15 21.01 штиль 0 4000 м 4/4 600 м
[Sc]
+25.4 +20.8 76 +32 +32 очень
душно
1013.0 1013.0
18 21.01 штиль 0 4000 м 5/5 600 м
[Sc]
+24.4 +21.1 82 +31 +31 очень
душно
1013.3 1013.0
21 21.01 штиль 0 4000 м 4/4 600 м
[Sc]
+23.8 +20.7 83 +30 +30 очень
душно
1012.0 1012.0
00 22.01 штиль 0 4000 м ясно +23.0 +19.6 81 +30 +30 очень
душно
1012.0 1012.0
03 22.01 штиль 0 4000 м 3/3 600 м
[Sc]
+24.4 +20.7 80 +30 +33 очень
душно
1014.1 1014.0 +20.8 +32.3
06 22.01 ЮВ 1 10 км 6/5 600 м
[Sc Ci fib]
+30.6 +20.1 54 +37 +46 очень
душно
1014.4 1014.0
09 22.01 штиль 0 10 км 1/1 600 м
[Sc]
+31.2 +20.4 53 +38 +54 опасность
солнечного
удара
1011.9 1012.0
12 22.01 штиль 0 10 км 5/5 600 м
[Sc]
+30.0 +18.6 50 +35 +36 очень
душно
1011.3 1011.0 +32.3
15 22.01 штиль 0 4000 м 3/3 600 м
[Sc]
+25.0 +18.7 68 +30 +30 душно 1012.8 1013.0
18 22.01 штиль 0 4000 м 5/5 600 м
[Sc]
+23.8 +19.1 75 +29 +29 душно 1013.9 1014.0
21 22.01 штиль 0 4000 м 3/3 600 м
[Sc]
+22.8 +18.4 76 +28 +28 душно 1012.7 1013.0
00 23.01 штиль 0 4000 м 3/3 600 м
[Sc]
+22.2 +18.7 81 +28 +28 душно 1012.8 1013.0
03 23.01 штиль 0 4000 м ясно +22.6 +18.8 79 +28 +32 душно 1013.8 1014.0 +19.8 +32.3
06 23.01 штиль 0 10 км 5/5 600 м
[Sc]
+31.6 +20.5 52 +39 +49 очень
душно
1013.9 1014.0
09 23.01 штиль 0 10 км 4/4 600 м
[Sc]
+33.0 +22.9 55 +43 +53 опасность
перегрева
1011.4 1011.0
12 23.01 СВ 2 10 км 6/5 600 м
[Sc Ci fib]
+30.6 +24.0 68 +42 +43 опасность
перегрева
1010.5 1011.0 +33.4
15 23.01 штиль 0 4000 м 5/5 600 м
[Sc]
+28.0 +22.7 73 +37 +37 очень
душно
1012.7 1013.0
18 23.01 штиль 0 4000 м 5/5 600 м
[Sc]
+27.0 +21.6 72 +34 +34 очень
душно
1013.6 1014.0
21 23.01 штиль 0 4000 м ясно +26.0 +21.5 76 +33 +33 очень
душно
1012.8 1013.0
00 24.01 штиль 0 4000 м 1/1 600 м
[Sc]
+26.0 +21.5 76 +33 +33 очень
душно
1013.1 1013.0
03 24.01 СВ 2 10 км 5/4 600 м
[Sc Ci fib]
+27.0 +22.3 75 +35 +37 очень
душно
1015.0 1015.0 +23.6 +33.4

 

Местоположение метеостанции Остров Амини (Лакшадвип, Индия): широта 11.12 долгота 72.73 высота над уровнем моря 3 м.

В архиве по умолчанию представлена погода на Острове Амини за последнюю неделю. Архивные данные за месяц целиком и за предыдущие месяцы, начиная с января 2011 года, Вы можете получить, выбрав интересующий диапазон дат из раскрывающегося списка и нажав кнопку "Ввод!".


*Определитесь, кто Вы:
робот инопланетянин человек

Внимание! Время в таблицах - всемирное. Для получения местного времени необходимо прибавить поправку, которая равна 5.5 ч.

Смотрите также архив погоды в соседних городах и на ближайших метеорологических станциях:

Погода на Агати (Лакшадвип, Индия) (68 км)
Погода в Каннаноре (Керала, Индия) (294 км)
Погода в Мангалоре (Карнатака, Индия) (306 км)
Погода в Мангалор аэропорт (Карнатака, Индия) (308 км)
Погода на Миникое (Лакшадвип, Индия) (317 км)
Погода в Кожикоде (Керала, Индия) (333 км)
Погода в Карипере (Керала, Индия) (351 км)
Погода в Мадикери (Карнатака, Индия) (357 км)
Погода на Агамбе (Карнатака, Индия) (368 км)
Погода в Ширали (Карнатака, Индия) (382 км)

Пояснения к столбцам:

Ветер - указаны скорость ветра в м/с - средняя за 10 мин, порывы в срок и между сроками (в фигурных скобках) и направление, откуда дует ветер: С - северный, СВ - северо-восточный, В - восточный, ЮВ - юго-восточный, Ю - южный, ЮЗ - юго-западный, З - западный, СЗ - северо-западный.
Видимость - горизонтальная дальность видимости в метрах или километрах. При видимости от 1 до 10 км при отсутствии осадков обычно наблюдается дымка, при ухудшении видимости до 1 км и менее - туман. В сухую погоду видимость может ухудшаться дымом, пылью или мглою.
Явления - указаны атмосферные явления, наблюдавшиеся в срок или в последний час перед сроком; фигурными скобками обозначены явления, наблюдавшиеся между сроками (за 1-3 часа до срока); квадратными скобками обозначены град или гололедные отложения с указанием их диаметра в мм.
Облачность - указаны через наклонную черту общая и нижняя облачность в баллах и высота нижней границы облаков в метрах; квадратными скобками обозначены формы облаков: Ci - перистые, Cs - перисто-слоистые, Cc - перисто-кучевые, Ac - высококучевые, As - высокослоистые, Sc - слоисто-кучевые, Ns - слоисто-дождевые, Cu - кучевые, Cb - кучево-дождевые. Подробнее классификацию облаков см. в Атласе облаков (PDF).
T - Температура воздуха - температура, измеренная на высоте 2 м над землей.
Td - Температура точки росы - температура, при понижении до которой содержащийся в воздухе водяной пар достигнет насыщения.
f - Относительная влажность воздуха - влажноcть воздуха, измеренная на высоте 2 м над землей.
Te - Эффективная температура - температура, которую ощущает одетый по сезону человек в тени. Характеристика душности погоды. При расчете учитывается влияние влажности воздуха и скорости ветра на теплоощущения человека.
Tes - Эффективная температура на солнце - температура, которую ощущает человек, с поправкой на солнечный нагрев. Характеристика знойности погоды. Зависит от высоты солнца над горизонтом, облачности и скорости ветра. Ночью, в пасмурную погоду, а также при ветре 12 м/с и более поправка равна нулю.
P - Атмосферное давление - приведенное к уровню моря атмосферное давление.
Po - Атмосферное давление - измеренное на уровне метеостанции атмосферное давление.
Tmin - Минимальная температура - минимум температуры воздуха на высоте 2 м над землей.
Tmax - Максимальная температура - максимум температуры воздуха на высоте 2 м над землей.
R - Количество осадков - Количество выпавших осадков за период времени, мм. При наведении курсора мыши на число - период времени, за который выпало указанное количество осадков.
R24 - Количество осадков - Количество выпавших осадков за 24 часа, мм.
S - Снежный покров - Высота снежного покрова, см. При наведении курсора мыши на число - состояние снежного покрова и степень покрытия местности в баллах.